Location: Amsterdam
(30.7274°N, 84.4357°W)
Time: 03:00:50
(UTC+00:00)

Courier 1B Rocket - Pass Details

Date: 15 February 2026
Orbit: 920 x 1201 km, 28.2° (Epoch: 7 March)

Event Time Altitude Azimuth Distance (km) Brightness Sun altitude
Rises 01:15:39 0° 236° (WSW) 3,551 8.8 -24.3°
Reaches altitude 10° 01:18:20 10° 230° (SW) 2,625 7.9 -24.9°
Maximum altitude 01:24:15 42° 160° (SSE) 1,325 5.5 -26.2°
Enters shadow 01:24:34 42° 153° (SSE) 1,334 5.4 -26.3°
Drops below altitude 10° 01:30:28 10° 92° (E) 2,768 - -27.5°
Sets 01:33:22 0° 85° (E) 3,765 - -28.2°
